To NAV CANADA Home Page Login to a new session Search on AWWS site Feedback and Comments Disclaimer Vers la page française équivalente Tips FAQ What's new on the site To the Forecasts and Observations / NOTAM section To "File a Flight Plan" website Publications and other links Update of the User's profile FIC Telephone Numbers My Weather Data Folder Route Weather Data Regional Weather Data Local Weather Data To the Forecasts and Observations / NOTAM section
Request Generated 05/27/2015 at 19:32:03 UTC . Weather information available at that time is displayed.

METAR/TAF

LA GRANDE-3/QC    

METAR CYAD 271900Z 33010G18KT 15SM SCT035 BKN110 OVC220 15/04 A2962 RMK CU3AC2CI2 SLP037=
METAR CYAD 271800Z 31009KT 15SM FEW035 BKN210 18/09 A2960 RMK CU2CI3 SLP031=
METAR CYAD 271700Z 26002KT 15SM SCT035 BKN210 20/11 A2959 RMK CU3CI2 SLP028=

CYAD - No TAF is issued for this station

Your time UTC time
Weather data provided by Environment Canada and NAV CANADA